This demonstration page uses our WeatherBlox Daily Observations layout. Learn more.

Left ArrowRight Arrow

34.02893, -84.19858

Hourly Observations for November 7, 2019

Temp ( °F °C ) Dew Point ( °F °C ) Humidity (%) Winds ( mph kmh ) Pressure ( in mb ) Visibility ( mi km ) Precip ( " mm )
12:53 am 00:53 Mostly Cloudy 53 11.7 46 7.8 77 77 VRB 3 6 30.28 1025 10 16 0.00 0.00
1:32 am 01:32 Mostly Cloudy 54 12.2 46 7.8 75 75 Calm 30.28 1025 10 16 0.00 0.00
1:53 am 01:53 Cloudy 54 12.2 46 7.8 75 75 Calm 30.27 1025 10 16 0.00 0.00
2:44 am 02:44 Cloudy 55 12.8 47 8.3 74 74 Calm 30.28 1025 10 16 0.00 0.00
2:53 am 02:53 Cloudy 55 12.8 47 8.3 74 74 VRB 3 6 30.26 1025 10 16 0.00 0.00
3:10 am 03:10 Cloudy 55 12.8 47 8.3 74 74 E 5 7 30.27 1025 10 16 0.00 0.00
3:53 am 03:53 Cloudy 55 12.8 47 8.3 74 74 VRB 3 6 30.25 1024 10 16 0.00 0.00
4:53 am 04:53 Cloudy 55 12.8 47 8.3 74 74 VRB 3 6 30.25 1024 10 16 0.00 0.00
5:07 am 05:07 Cloudy 55 12.8 47 8.3 74 74 Calm 30.26 1025 10 16 0.00 0.00
5:53 am 05:53 Cloudy 55 12.8 47 8.3 74 74 VRB 3 6 30.25 1024 10 16 0.00 0.00
6:30 am 06:30 Cloudy 55 12.8 48 8.9 77 77 Calm 30.26 1025 10 16 0.00 0.00
6:53 am 06:53 Cloudy 55 12.8 47 8.3 74 74 VRB 3 6 30.26 1025 10 16 0.00 0.00
7:53 am 07:53 Cloudy 55 12.8 48 8.9 77 77 E 3 6 30.26 1025 10 16 0.00 0.00
8:00 am 08:00 Cloudy 55 12.8 48 8.9 77 77 Calm 30.26 1025 10 16 0.00 0.00
8:53 am 08:53 Cloudy 56 13.3 49 9.4 77 77 VRB 3 6 30.26 1025 10 16 0.00 0.00
9:27 am 09:27 Cloudy 57 13.9 50 10 78 78 undefined N/A 30.26 1025 10 16 0.00 0.00
9:40 am 09:40 Cloudy 58 14.4 50 10 75 75 Calm 30.25 1025 10 16 0.00 0.00
9:51 am 09:51 Cloudy 57 14 52 11 82 82 Calm 30.26 1025 10 16 0.00 0.00
9:53 am 09:53 Cloudy 58 14.4 51 10.6 78 78 Calm 30.25 1025 10 16 0.00 0.00
10:20 am 10:20 Cloudy 60 15.6 52 11.1 75 75 Calm 30.24 1024 10 16 0.00 0.00
10:53 am 10:53 Cloudy 63 17.2 54 12.2 73 73 VRB 5 7 30.23 1024 10 16 0.00 0.00
11:53 am 11:53 Cloudy 64 17.8 56 13.3 75 75 SE 5 7 30.21 1023 10 16 0.00 0.00
12:53 pm 12:53 Cloudy 65 18.3 57 13.9 76 76 S 7 11 30.18 1022 10 16 0.00 0.00
1:53 pm 13:53 Mostly Cloudy 66 18.9 58 14.4 75 75 S 7 11 30.13 1020 10 16 0.00 0.00
2:53 pm 14:53 Cloudy 66 18.9 59 15 78 78 SE 5 7 30.11 1020 10 16 0.00 0.00
3:01 pm 15:01 Cloudy 66 18.9 59 15 78 78 SSE 9 15 30.09 1019 10 16 0.00 0.00
3:53 pm 15:53 Cloudy 66 18.9 59 15 78 78 SE 3 6 30.08 1019 10 16 0.00 0.00
4:53 pm 16:53 Cloudy 64 17.8 59 15 84 84 SE 5 7 30.08 1019 10 16 0.00 0.00
5:07 pm 17:07 Mostly Cloudy 64 17.8 59 15 84 84 S 6 9 30.07 1018 10 16 0.00 0.00
5:24 pm 17:24 Mostly Cloudy 64 17.8 59 15 84 84 SE 5 7 30.06 1018 10 16 0.00 0.00
5:53 pm 17:53 Mostly Cloudy 63 17.2 59 15 87 87 S 3 6 30.07 1018 10 16 0.00 0.00
6:21 pm 18:21 Mostly Cloudy 63 17.2 59 15 87 87 Calm 30.06 1018 10 16 0.00 0.00
7:10 pm 19:10 Cloudy with Heavy Rain 61 16.1 59 15 93 93 N 15 24 30.09 1019 3 4 0.08 2.03
7:19 pm 19:19 Cloudy with Heavy Rain 60 15.6 59 15 96 96 N 15 24 30.09 1019 2 3 0.21 5.33
7:28 pm 19:28 Cloudy with Rain 59 15 58 14.4 96 96 N 14 22 30.10 1019 3 4 0.26 6.60
7:35 pm 19:35 Cloudy with Rain 59 15 58 14.4 96 96 N 15 24 30.11 1020 4 6 0.28 7.11
7:40 pm 19:40 Cloudy with Rain 59 15 57 13.9 93 93 N 16 26 30.11 1020 4 6 0.29 7.37
7:53 pm 19:53 Cloudy with Rain 58 14.4 56 13.3 93 93 N 12 19 30.11 1020 4 6 0.32 8.13
8:53 pm 20:53 Cloudy with Light Rain 57 13.9 56 13.3 96 96 NNW 7 11 30.13 1020 7 11 0.08 2.03
9:53 pm 21:53 Cloudy with Light Rain 57 13.9 56 13.3 96 96 WNW 5 7 30.13 1020 8 13 0.04 1.02
10:53 pm 22:53 Cloudy with Light Rain 57 13.9 55 12.8 93 93 NW 3 6 30.10 1019 5 8 0.06 1.52
11:53 pm 23:53 Cloudy with Light Rain 56 13.3 55 12.8 97 97 WNW 5 7 30.07 1018 10 16 0.07 1.78

Powered by AerisWeather